Year,Month,Day,Hour,Minute,Value (Times are PST for temperature in C)
2015,07,04,00,00,19.20
2015,07,04,00,01,19.20
2015,07,04,00,02,19.20
2015,07,04,00,03,19.20
2015,07,04,00,04,19.20
2015,07,04,00,05,19.20
2015,07,04,00,06,19.20
2015,07,04,00,07,19.20
2015,07,04,00,08,19.20
2015,07,04,00,09,19.20
2015,07,04,00,10,19.20
2015,07,04,00,11,19.20
2015,07,04,00,12,19.20
2015,07,04,00,13,19.20
2015,07,04,00,14,19.20
2015,07,04,00,15,19.20
2015,07,04,00,16,19.20
2015,07,04,00,17,19.20
2015,07,04,00,18,19.20
2015,07,04,00,19,19.20
2015,07,04,00,20,19.20
2015,07,04,00,21,19.20
2015,07,04,00,22,19.20
2015,07,04,00,23,19.20
2015,07,04,00,24,19.20
2015,07,04,00,25,19.20
2015,07,04,00,26,19.10
2015,07,04,00,27,19.10
2015,07,04,00,28,19.10
2015,07,04,00,29,19.10
2015,07,04,00,30,19.10
2015,07,04,00,31,19.10
2015,07,04,00,32,19.10
2015,07,04,00,33,19.10
2015,07,04,00,34,19.20
2015,07,04,00,35,19.20
2015,07,04,00,36,19.20
2015,07,04,00,37,19.20
2015,07,04,00,38,19.20
2015,07,04,00,39,19.20
2015,07,04,00,40,19.20
2015,07,04,00,41,19.30
2015,07,04,00,42,19.30
2015,07,04,00,43,19.30
2015,07,04,00,44,19.30
2015,07,04,00,45,19.20
2015,07,04,00,46,19.20
2015,07,04,00,47,19.10
2015,07,04,00,48,19.00
2015,07,04,00,49,19.00
2015,07,04,00,50,18.90
2015,07,04,00,51,18.80
2015,07,04,00,52,18.80
2015,07,04,00,53,18.70
2015,07,04,00,54,18.70
2015,07,04,00,55,18.70
2015,07,04,00,56,18.60
2015,07,04,00,57,18.60
2015,07,04,00,58,18.60
2015,07,04,00,59,18.70
2015,07,04,01,00,18.70
2015,07,04,01,01,18.70
2015,07,04,01,02,18.70
2015,07,04,01,03,18.70
2015,07,04,01,04,18.70
2015,07,04,01,05,18.70
2015,07,04,01,06,18.70
2015,07,04,01,07,18.70
2015,07,04,01,08,18.70
2015,07,04,01,09,18.60
2015,07,04,01,10,18.50
2015,07,04,01,11,18.50
2015,07,04,01,12,18.40
2015,07,04,01,13,18.30
2015,07,04,01,14,18.30
2015,07,04,01,15,18.20
2015,07,04,01,16,18.20
2015,07,04,01,17,18.20
2015,07,04,01,18,18.10
2015,07,04,01,19,18.10
2015,07,04,01,20,18.00
2015,07,04,01,21,18.00
2015,07,04,01,22,18.00
2015,07,04,01,23,17.90
2015,07,04,01,24,17.90
2015,07,04,01,25,17.90
2015,07,04,01,26,17.90
2015,07,04,01,27,17.80
2015,07,04,01,28,17.80
2015,07,04,01,29,17.80
2015,07,04,01,30,17.80
2015,07,04,01,31,17.70
2015,07,04,01,32,17.70
2015,07,04,01,33,17.70
2015,07,04,01,34,17.60
2015,07,04,01,35,17.60
2015,07,04,01,36,17.60
2015,07,04,01,37,17.50
2015,07,04,01,38,17.50
2015,07,04,01,39,17.50
2015,07,04,01,40,17.50
2015,07,04,01,41,17.50
2015,07,04,01,42,17.50
2015,07,04,01,43,17.50
2015,07,04,01,44,17.50
2015,07,04,01,45,17.40
2015,07,04,01,46,17.40
2015,07,04,01,47,17.40
2015,07,04,01,48,17.30
2015,07,04,01,49,17.30
2015,07,04,01,50,17.20
2015,07,04,01,51,17.20
2015,07,04,01,52,17.10
2015,07,04,01,53,17.10
2015,07,04,01,54,17.10
2015,07,04,01,55,17.10
2015,07,04,01,56,17.10
2015,07,04,01,57,17.20
2015,07,04,01,58,17.10
2015,07,04,01,59,17.10
2015,07,04,02,00,17.00
2015,07,04,02,01,16.90
2015,07,04,02,02,16.80
2015,07,04,02,03,16.70
2015,07,04,02,04,16.60
2015,07,04,02,05,16.50
2015,07,04,02,06,16.40
2015,07,04,02,07,16.30
2015,07,04,02,08,16.20
2015,07,04,02,09,16.10
2015,07,04,02,10,16.10
2015,07,04,02,11,16.00
2015,07,04,02,12,15.90
2015,07,04,02,13,15.80
2015,07,04,02,14,15.80
2015,07,04,02,15,15.80
2015,07,04,02,16,15.70
2015,07,04,02,17,15.70
2015,07,04,02,18,15.60
2015,07,04,02,19,15.60
2015,07,04,02,20,15.60
2015,07,04,02,21,15.50
2015,07,04,02,22,15.50
2015,07,04,02,23,15.50
2015,07,04,02,24,15.50
2015,07,04,02,25,15.50
2015,07,04,02,26,15.50
2015,07,04,02,27,15.50
2015,07,04,02,28,15.40
2015,07,04,02,29,15.40
2015,07,04,02,30,15.40
2015,07,04,02,31,15.50
2015,07,04,02,32,15.50
2015,07,04,02,33,15.50
2015,07,04,02,34,15.50
2015,07,04,02,35,15.50
2015,07,04,02,36,15.50
2015,07,04,02,37,15.40
2015,07,04,02,38,15.40
2015,07,04,02,39,15.40
2015,07,04,02,40,15.40
2015,07,04,02,41,15.40
2015,07,04,02,42,15.40
2015,07,04,02,43,15.40
2015,07,04,02,44,15.40
2015,07,04,02,45,15.40
2015,07,04,02,46,15.30
2015,07,04,02,47,15.30
2015,07,04,02,48,15.30
2015,07,04,02,49,15.30
2015,07,04,02,50,15.20
2015,07,04,02,51,15.20
2015,07,04,02,52,15.10
2015,07,04,02,53,15.00
2015,07,04,02,54,14.90
2015,07,04,02,55,14.80
2015,07,04,02,56,14.80
2015,07,04,02,57,14.80
2015,07,04,02,58,14.80
2015,07,04,02,59,14.80
2015,07,04,03,00,14.80
2015,07,04,03,01,14.80
2015,07,04,03,02,14.80
2015,07,04,03,03,14.80
2015,07,04,03,04,14.80
2015,07,04,03,05,14.80
2015,07,04,03,06,14.80
2015,07,04,03,07,14.70
2015,07,04,03,08,14.70
2015,07,04,03,09,14.60
2015,07,04,03,10,14.60
2015,07,04,03,11,14.50
2015,07,04,03,12,14.50
2015,07,04,03,13,14.50
2015,07,04,03,14,14.50
2015,07,04,03,15,14.50
2015,07,04,03,16,14.50
2015,07,04,03,17,14.50
2015,07,04,03,18,14.60
2015,07,04,03,19,14.70
2015,07,04,03,20,14.70
2015,07,04,03,21,14.80
2015,07,04,03,22,14.80
2015,07,04,03,23,14.80
2015,07,04,03,24,14.80
2015,07,04,03,25,14.90
2015,07,04,03,26,14.90
2015,07,04,03,27,14.90
2015,07,04,03,28,14.90
2015,07,04,03,29,14.90
2015,07,04,03,30,14.90
2015,07,04,03,31,14.90
2015,07,04,03,32,14.90
2015,07,04,03,33,15.00
2015,07,04,03,34,15.00
2015,07,04,03,35,15.00
2015,07,04,03,36,14.90
2015,07,04,03,37,14.90
2015,07,04,03,38,14.90
2015,07,04,03,39,14.80
2015,07,04,03,40,14.80
2015,07,04,03,41,14.80
2015,07,04,03,42,14.70
2015,07,04,03,43,14.60
2015,07,04,03,44,14.50
2015,07,04,03,45,14.50
2015,07,04,03,46,14.50
2015,07,04,03,47,14.50
2015,07,04,03,48,14.50
2015,07,04,03,49,14.40
2015,07,04,03,50,14.40
2015,07,04,03,51,14.40
2015,07,04,03,52,14.40
2015,07,04,03,53,14.30
2015,07,04,03,54,14.30
2015,07,04,03,55,14.30
2015,07,04,03,56,14.30
2015,07,04,03,57,14.30
2015,07,04,03,58,14.30
2015,07,04,03,59,14.30
2015,07,04,04,00,14.30
2015,07,04,04,01,14.30
2015,07,04,04,02,14.20
2015,07,04,04,03,14.20
2015,07,04,04,04,14.20
2015,07,04,04,05,14.20
2015,07,04,04,06,14.30
2015,07,04,04,07,14.30
2015,07,04,04,08,14.30
2015,07,04,04,09,14.30
2015,07,04,04,10,14.30
2015,07,04,04,11,14.30
2015,07,04,04,12,14.30
2015,07,04,04,13,14.30
2015,07,04,04,14,14.40
2015,07,04,04,15,14.50
2015,07,04,04,16,14.60
2015,07,04,04,17,14.60
2015,07,04,04,18,14.70
2015,07,04,04,19,14.70
2015,07,04,04,20,14.70
2015,07,04,04,21,14.70
2015,07,04,04,22,14.70
2015,07,04,04,23,14.70
2015,07,04,04,24,14.70
2015,07,04,04,25,14.60
2015,07,04,04,26,14.60
2015,07,04,04,27,14.40
2015,07,04,04,28,14.30
2015,07,04,04,29,14.20
2015,07,04,04,30,14.10
2015,07,04,04,31,14.00
2015,07,04,04,32,13.90
2015,07,04,04,33,13.70
2015,07,04,04,34,13.60
2015,07,04,04,35,13.50
2015,07,04,04,36,13.40
2015,07,04,04,37,13.30
2015,07,04,04,38,13.30
2015,07,04,04,39,13.20
2015,07,04,04,40,13.10
2015,07,04,04,41,13.10
2015,07,04,04,42,13.10
2015,07,04,04,43,13.10
2015,07,04,04,44,13.10
2015,07,04,04,45,13.10
2015,07,04,04,46,13.00
2015,07,04,04,47,13.00
2015,07,04,04,48,13.00
2015,07,04,04,49,13.00
2015,07,04,04,50,13.00
2015,07,04,04,51,12.90
2015,07,04,04,52,12.90
2015,07,04,04,53,12.90
2015,07,04,04,54,12.90
2015,07,04,04,55,12.80
2015,07,04,04,56,12.80
2015,07,04,04,57,12.80
2015,07,04,04,58,12.70
2015,07,04,04,59,12.70
2015,07,04,05,00,12.60
2015,07,04,05,01,12.50
2015,07,04,05,02,12.40
2015,07,04,05,03,12.30
2015,07,04,05,04,12.30
2015,07,04,05,05,12.20
2015,07,04,05,06,12.10
2015,07,04,05,07,12.10
2015,07,04,05,08,12.10
2015,07,04,05,09,12.10
2015,07,04,05,10,12.00
2015,07,04,05,11,12.00
2015,07,04,05,12,12.00
2015,07,04,05,13,12.00
2015,07,04,05,14,11.90
2015,07,04,05,15,11.90
2015,07,04,05,16,11.90
2015,07,04,05,17,11.90
2015,07,04,05,18,11.90
2015,07,04,05,19,11.80
2015,07,04,05,20,11.80
2015,07,04,05,21,11.80
2015,07,04,05,22,11.80
2015,07,04,05,23,11.80
2015,07,04,05,24,11.90
2015,07,04,05,25,11.90
2015,07,04,05,26,11.90
2015,07,04,05,27,11.90
2015,07,04,05,28,11.90
2015,07,04,05,29,11.90
2015,07,04,05,30,11.90
2015,07,04,05,31,11.90
2015,07,04,05,32,11.90
2015,07,04,05,33,11.90
2015,07,04,05,34,12.00
2015,07,04,05,35,12.00
2015,07,04,05,36,12.00
2015,07,04,05,37,12.00
2015,07,04,05,38,12.00
2015,07,04,05,39,12.10
2015,07,04,05,40,12.10
2015,07,04,05,41,12.10
2015,07,04,05,42,12.10
2015,07,04,05,43,12.10
2015,07,04,05,44,12.10
2015,07,04,05,45,12.10
2015,07,04,05,46,12.10
2015,07,04,05,47,12.10
2015,07,04,05,48,12.10
2015,07,04,05,49,12.10
2015,07,04,05,50,12.10
2015,07,04,05,51,12.10
2015,07,04,05,52,12.10
2015,07,04,05,53,12.00
2015,07,04,05,54,11.90
2015,07,04,05,55,11.90
2015,07,04,05,56,11.70
2015,07,04,05,57,11.60
2015,07,04,05,58,11.50
2015,07,04,05,59,11.30
2015,07,04,06,00,11.20
2015,07,04,06,01,11.10
2015,07,04,06,02,11.00
2015,07,04,06,03,11.00
2015,07,04,06,04,10.90
2015,07,04,06,05,10.90
2015,07,04,06,06,10.90
2015,07,04,06,07,10.90
2015,07,04,06,08,10.90
2015,07,04,06,09,10.90
2015,07,04,06,10,11.00
2015,07,04,06,11,11.10
2015,07,04,06,12,11.10
2015,07,04,06,13,11.30
2015,07,04,06,14,11.40
2015,07,04,06,15,11.50
2015,07,04,06,16,11.60
2015,07,04,06,17,11.70
2015,07,04,06,18,11.80
2015,07,04,06,19,11.80
2015,07,04,06,20,11.90
2015,07,04,06,21,12.00
2015,07,04,06,22,12.10
2015,07,04,06,23,12.10
2015,07,04,06,24,12.00
2015,07,04,06,25,12.00
2015,07,04,06,26,11.90
2015,07,04,06,27,11.80
2015,07,04,06,28,11.70
2015,07,04,06,29,11.60
2015,07,04,06,30,11.60
2015,07,04,06,31,11.60
2015,07,04,06,32,11.60
2015,07,04,06,33,11.60
2015,07,04,06,34,11.70
2015,07,04,06,35,11.70
2015,07,04,06,36,11.80
2015,07,04,06,37,11.80
2015,07,04,06,38,11.90
2015,07,04,06,39,11.90
2015,07,04,06,40,12.00
2015,07,04,06,41,12.00
2015,07,04,06,42,12.10
2015,07,04,06,43,12.10
2015,07,04,06,44,12.20
2015,07,04,06,45,12.20
2015,07,04,06,46,12.30
2015,07,04,06,47,12.40
2015,07,04,06,48,12.50
2015,07,04,06,49,12.50
2015,07,04,06,50,12.60
2015,07,04,06,51,12.70
2015,07,04,06,52,12.80
2015,07,04,06,53,13.00
2015,07,04,06,54,13.10
2015,07,04,06,55,13.20
2015,07,04,06,56,13.40
2015,07,04,06,57,13.50
2015,07,04,06,58,13.60
2015,07,04,06,59,13.80
2015,07,04,07,00,13.90
2015,07,04,07,01,14.00
2015,07,04,07,02,14.20
2015,07,04,07,03,14.30
2015,07,04,07,04,14.40
2015,07,04,07,05,14.50
2015,07,04,07,06,14.60
2015,07,04,07,07,14.70
2015,07,04,07,08,14.80
2015,07,04,07,09,14.90
2015,07,04,07,10,14.90
2015,07,04,07,11,15.00
2015,07,04,07,12,15.10
2015,07,04,07,13,15.10
2015,07,04,07,14,15.20
2015,07,04,07,15,15.20
2015,07,04,07,16,15.20
2015,07,04,07,17,15.20
2015,07,04,07,18,15.30
2015,07,04,07,19,15.30
2015,07,04,07,20,15.30
2015,07,04,07,21,15.30
2015,07,04,07,22,15.30
2015,07,04,07,23,15.40
2015,07,04,07,24,15.40
2015,07,04,07,25,15.40
2015,07,04,07,26,15.40
2015,07,04,07,27,15.40
2015,07,04,07,28,15.50
2015,07,04,07,29,15.60
2015,07,04,07,30,15.60
2015,07,04,07,31,15.70
2015,07,04,07,32,15.80
2015,07,04,07,33,15.80
2015,07,04,07,34,15.90
2015,07,04,07,35,16.00
2015,07,04,07,36,16.10
2015,07,04,07,37,16.20
2015,07,04,07,38,16.30
2015,07,04,07,39,16.30
2015,07,04,07,40,16.40
2015,07,04,07,41,16.50
2015,07,04,07,42,16.60
2015,07,04,07,43,16.60
2015,07,04,07,44,16.70
2015,07,04,07,45,16.70
2015,07,04,07,46,16.80
2015,07,04,07,47,16.80
2015,07,04,07,48,16.90
2015,07,04,07,49,16.90
2015,07,04,07,50,17.00
2015,07,04,07,51,17.00
2015,07,04,07,52,17.10
2015,07,04,07,53,17.10
2015,07,04,07,54,17.10
2015,07,04,07,55,17.20
2015,07,04,07,56,17.20
2015,07,04,07,57,17.30
2015,07,04,07,58,17.30
2015,07,04,07,59,17.40
2015,07,04,08,00,17.40
2015,07,04,08,01,17.50
2015,07,04,08,02,17.60
2015,07,04,08,03,17.60
2015,07,04,08,04,17.70
2015,07,04,08,05,17.70
2015,07,04,08,06,17.80
2015,07,04,08,07,17.80
2015,07,04,08,08,17.90
2015,07,04,08,09,17.90
2015,07,04,08,10,18.00
2015,07,04,08,11,18.00
2015,07,04,08,12,18.10
2015,07,04,08,13,18.20
2015,07,04,08,14,18.30
2015,07,04,08,15,18.30
2015,07,04,08,16,18.40
2015,07,04,08,17,18.50
2015,07,04,08,18,18.60
2015,07,04,08,19,18.70
2015,07,04,08,20,18.70
2015,07,04,08,21,18.80
2015,07,04,08,22,18.80
2015,07,04,08,23,18.90
2015,07,04,08,24,19.00
2015,07,04,08,25,19.00
2015,07,04,08,26,19.10
2015,07,04,08,27,19.10
2015,07,04,08,28,19.20
2015,07,04,08,29,19.20
2015,07,04,08,30,19.30
2015,07,04,08,31,19.30
2015,07,04,08,32,19.30
2015,07,04,08,33,19.30
2015,07,04,08,34,19.30
2015,07,04,08,35,19.30
2015,07,04,08,36,19.40
2015,07,04,08,37,19.40
2015,07,04,08,38,19.50
2015,07,04,08,39,19.50
2015,07,04,08,40,19.60
2015,07,04,08,41,19.50
2015,07,04,08,42,19.50
2015,07,04,08,43,19.60
2015,07,04,08,44,19.60
2015,07,04,08,45,19.60
2015,07,04,08,46,19.60
2015,07,04,08,47,19.60
2015,07,04,08,48,19.60
2015,07,04,08,49,19.60
2015,07,04,08,50,19.60
2015,07,04,08,51,19.60
2015,07,04,08,52,19.70
2015,07,04,08,53,19.70
2015,07,04,08,54,19.70
2015,07,04,08,55,19.70
2015,07,04,08,56,19.70
2015,07,04,08,57,19.80
2015,07,04,08,58,19.80
2015,07,04,08,59,19.80
2015,07,04,09,00,19.80
2015,07,04,09,01,19.80
2015,07,04,09,02,19.90
2015,07,04,09,03,19.90
2015,07,04,09,04,20.00
2015,07,04,09,05,20.00
2015,07,04,09,06,20.10
2015,07,04,09,07,20.10
2015,07,04,09,08,20.20
2015,07,04,09,09,20.20
2015,07,04,09,10,20.30
2015,07,04,09,11,20.30
2015,07,04,09,12,20.40
2015,07,04,09,13,20.40
2015,07,04,09,14,20.50
2015,07,04,09,15,20.50
2015,07,04,09,16,20.60
2015,07,04,09,17,20.60
2015,07,04,09,18,20.70
2015,07,04,09,19,20.70
2015,07,04,09,20,20.80
2015,07,04,09,21,20.80
2015,07,04,09,22,20.80
2015,07,04,09,23,20.80
2015,07,04,09,24,20.80
2015,07,04,09,25,20.80
2015,07,04,09,26,20.80
2015,07,04,09,27,20.80
2015,07,04,09,28,20.80
2015,07,04,09,29,20.90
2015,07,04,09,30,20.90
2015,07,04,09,31,20.90
2015,07,04,09,32,20.90
2015,07,04,09,33,21.00
2015,07,04,09,34,21.00
2015,07,04,09,35,21.10
2015,07,04,09,36,21.10
2015,07,04,09,37,21.10
2015,07,04,09,38,21.20
2015,07,04,09,39,21.20
2015,07,04,09,40,21.30
2015,07,04,09,41,21.30
2015,07,04,09,42,21.40
2015,07,04,09,43,21.40
2015,07,04,09,44,21.50
2015,07,04,09,45,21.50
2015,07,04,09,46,21.60
2015,07,04,09,47,21.60
2015,07,04,09,48,21.70
2015,07,04,09,49,21.80
2015,07,04,09,50,21.80
2015,07,04,09,51,21.80
2015,07,04,09,52,21.90
2015,07,04,09,53,22.00
2015,07,04,09,54,22.00
2015,07,04,09,55,22.10
2015,07,04,09,56,22.20
2015,07,04,09,57,22.10
2015,07,04,09,58,22.10
2015,07,04,09,59,22.10
2015,07,04,10,00,22.20
2015,07,04,10,01,22.20
2015,07,04,10,02,22.30
2015,07,04,10,03,22.40
2015,07,04,10,04,22.40
2015,07,04,10,05,22.40
2015,07,04,10,06,22.40
2015,07,04,10,07,22.40
2015,07,04,10,08,22.30
2015,07,04,10,09,22.30
2015,07,04,10,10,22.20
2015,07,04,10,11,22.10
2015,07,04,10,12,22.10
2015,07,04,10,13,22.00
2015,07,04,10,14,22.10
2015,07,04,10,15,22.10
2015,07,04,10,16,22.10
2015,07,04,10,17,22.10
2015,07,04,10,18,22.20
2015,07,04,10,19,22.20
2015,07,04,10,20,22.20
2015,07,04,10,21,22.20
2015,07,04,10,22,22.30
2015,07,04,10,23,22.30
2015,07,04,10,24,22.30
2015,07,04,10,25,22.30
2015,07,04,10,26,22.30
2015,07,04,10,27,22.30
2015,07,04,10,28,22.20
2015,07,04,10,29,22.20
2015,07,04,10,30,22.10
2015,07,04,10,31,22.20
2015,07,04,10,32,22.20
2015,07,04,10,33,22.20
2015,07,04,10,34,22.20
2015,07,04,10,35,22.10
2015,07,04,10,36,22.20
2015,07,04,10,37,22.20
2015,07,04,10,38,22.30
2015,07,04,10,39,22.30
2015,07,04,10,40,22.40
2015,07,04,10,41,22.50
2015,07,04,10,42,22.60
2015,07,04,10,43,22.70
2015,07,04,10,44,22.80
2015,07,04,10,45,22.80
2015,07,04,10,46,22.80
2015,07,04,10,47,22.80
2015,07,04,10,48,22.80
2015,07,04,10,49,22.90
2015,07,04,10,50,22.90
2015,07,04,10,51,23.00
2015,07,04,10,52,23.10
2015,07,04,10,53,23.20
2015,07,04,10,54,23.20
2015,07,04,10,55,23.20
2015,07,04,10,56,23.20
2015,07,04,10,57,23.20
2015,07,04,10,58,23.20
2015,07,04,10,59,23.20
2015,07,04,11,00,23.10
2015,07,04,11,01,23.00
2015,07,04,11,02,22.90
2015,07,04,11,03,22.90
2015,07,04,11,04,22.80
2015,07,04,11,05,22.80
2015,07,04,11,06,22.80
2015,07,04,11,07,22.70
2015,07,04,11,08,22.70
2015,07,04,11,09,22.70
2015,07,04,11,10,22.70
2015,07,04,11,11,22.70
2015,07,04,11,12,22.70
2015,07,04,11,13,22.70
2015,07,04,11,14,22.70
2015,07,04,11,15,22.80
2015,07,04,11,16,22.80
2015,07,04,11,17,22.90
2015,07,04,11,18,23.00
2015,07,04,11,19,23.00
2015,07,04,11,20,23.10
2015,07,04,11,21,23.20
2015,07,04,11,22,23.30
2015,07,04,11,23,23.30
2015,07,04,11,24,23.40
2015,07,04,11,25,23.40
2015,07,04,11,26,23.40
2015,07,04,11,27,23.40
2015,07,04,11,28,23.50
2015,07,04,11,29,23.50
2015,07,04,11,30,23.50
2015,07,04,11,31,23.60
2015,07,04,11,32,23.60
2015,07,04,11,33,23.50
2015,07,04,11,34,23.50
2015,07,04,11,35,23.50
2015,07,04,11,36,23.40
2015,07,04,11,37,23.40
2015,07,04,11,38,23.50
2015,07,04,11,39,23.50
2015,07,04,11,40,23.60
2015,07,04,11,41,23.60
2015,07,04,11,42,23.60
2015,07,04,11,43,23.70
2015,07,04,11,44,23.70
2015,07,04,11,45,23.80
2015,07,04,11,46,23.80
2015,07,04,11,47,23.90
2015,07,04,11,48,23.90
2015,07,04,11,49,24.00
2015,07,04,11,50,24.00
2015,07,04,11,51,24.00
2015,07,04,11,52,24.10
2015,07,04,11,53,24.20
2015,07,04,11,54,24.30
2015,07,04,11,55,24.40
2015,07,04,11,56,24.50
2015,07,04,11,57,24.50
2015,07,04,11,58,24.60
2015,07,04,11,59,24.70
2015,07,04,12,00,24.70
2015,07,04,12,01,24.80
2015,07,04,12,02,24.80
2015,07,04,12,03,24.80
2015,07,04,12,04,24.80
2015,07,04,12,05,24.80
2015,07,04,12,06,24.80
2015,07,04,12,07,24.80
2015,07,04,12,08,24.70
2015,07,04,12,09,24.70
2015,07,04,12,10,24.60
2015,07,04,12,11,24.50
2015,07,04,12,12,24.40
2015,07,04,12,13,24.40
2015,07,04,12,14,24.40
2015,07,04,12,15,24.50
2015,07,04,12,16,24.50
2015,07,04,12,17,24.50
2015,07,04,12,18,24.60
2015,07,04,12,19,24.60
2015,07,04,12,20,24.60
2015,07,04,12,21,24.60
2015,07,04,12,22,24.60
2015,07,04,12,23,24.60
2015,07,04,12,24,24.60
2015,07,04,12,25,24.60
2015,07,04,12,26,24.60
2015,07,04,12,27,24.60
2015,07,04,12,28,24.60
2015,07,04,12,29,24.50
2015,07,04,12,30,24.50
2015,07,04,12,31,24.50
2015,07,04,12,32,24.50
2015,07,04,12,33,24.50
2015,07,04,12,34,24.60
2015,07,04,12,35,24.60
2015,07,04,12,36,24.60
2015,07,04,12,37,24.60
2015,07,04,12,38,24.70
2015,07,04,12,39,24.80
2015,07,04,12,40,24.90
2015,07,04,12,41,25.00
2015,07,04,12,42,25.10
2015,07,04,12,43,25.20
2015,07,04,12,44,25.30
2015,07,04,12,45,25.30
2015,07,04,12,46,25.30
2015,07,04,12,47,25.40
2015,07,04,12,48,25.40
2015,07,04,12,49,25.40
2015,07,04,12,50,25.40
2015,07,04,12,51,25.50
2015,07,04,12,52,25.60
2015,07,04,12,53,25.80
2015,07,04,12,54,25.80
2015,07,04,12,55,25.90
2015,07,04,12,56,25.90
2015,07,04,12,57,26.00
2015,07,04,12,58,26.00
2015,07,04,12,59,26.00
2015,07,04,13,00,26.00
2015,07,04,13,01,25.90
2015,07,04,13,02,25.90
2015,07,04,13,03,25.90
2015,07,04,13,04,26.00
2015,07,04,13,05,26.10
2015,07,04,13,06,26.10
2015,07,04,13,07,26.20
2015,07,04,13,08,26.20
2015,07,04,13,09,26.30
2015,07,04,13,10,26.30
2015,07,04,13,11,26.20
2015,07,04,13,12,26.20
2015,07,04,13,13,26.10
2015,07,04,13,14,26.10
2015,07,04,13,15,26.10
2015,07,04,13,16,26.10
2015,07,04,13,17,26.00
2015,07,04,13,18,26.00
2015,07,04,13,19,26.10
2015,07,04,13,20,26.10
2015,07,04,13,21,26.10
2015,07,04,13,22,26.00
2015,07,04,13,23,26.00
2015,07,04,13,24,26.00
2015,07,04,13,25,26.00
2015,07,04,13,26,26.00
2015,07,04,13,27,26.10
2015,07,04,13,28,26.00
2015,07,04,13,29,26.00
2015,07,04,13,30,25.90
2015,07,04,13,31,25.90
2015,07,04,13,32,25.90
2015,07,04,13,33,25.90
2015,07,04,13,34,25.90
2015,07,04,13,35,25.90
2015,07,04,13,36,26.00
2015,07,04,13,37,25.90
2015,07,04,13,38,25.90
2015,07,04,13,39,26.00
2015,07,04,13,40,26.00
2015,07,04,13,41,26.10
2015,07,04,13,42,26.10
2015,07,04,13,43,26.10
2015,07,04,13,44,26.10
2015,07,04,13,45,26.00
2015,07,04,13,46,25.90
2015,07,04,13,47,25.80
2015,07,04,13,48,25.80
2015,07,04,13,49,25.90
2015,07,04,13,50,25.90
2015,07,04,13,51,26.00
2015,07,04,13,52,26.00
2015,07,04,13,53,26.10
2015,07,04,13,54,26.10
2015,07,04,13,55,26.20
2015,07,04,13,56,26.30
2015,07,04,13,57,26.30
2015,07,04,13,58,26.30
2015,07,04,13,59,26.30
2015,07,04,14,00,26.30
2015,07,04,14,01,26.30
2015,07,04,14,02,26.30
2015,07,04,14,03,26.30
2015,07,04,14,04,26.40
2015,07,04,14,05,26.30
2015,07,04,14,06,26.40
2015,07,04,14,07,26.50
2015,07,04,14,08,26.50
2015,07,04,14,09,26.60
2015,07,04,14,10,26.60
2015,07,04,14,11,26.60
2015,07,04,14,12,26.60
2015,07,04,14,13,26.60
2015,07,04,14,14,26.60
2015,07,04,14,15,26.60
2015,07,04,14,16,26.70
2015,07,04,14,17,26.80
2015,07,04,14,18,26.80
2015,07,04,14,19,26.80
2015,07,04,14,20,26.90
2015,07,04,14,21,26.90
2015,07,04,14,22,26.90
2015,07,04,14,23,26.80
2015,07,04,14,24,26.80
2015,07,04,14,25,26.80
2015,07,04,14,26,26.80
2015,07,04,14,27,26.80
2015,07,04,14,28,26.80
2015,07,04,14,29,26.90
2015,07,04,14,30,26.90
2015,07,04,14,31,27.00
2015,07,04,14,32,27.00
2015,07,04,14,33,27.10
2015,07,04,14,34,27.10
2015,07,04,14,35,27.10
2015,07,04,14,36,27.20
2015,07,04,14,37,27.30
2015,07,04,14,38,27.30
2015,07,04,14,39,27.30
2015,07,04,14,40,27.30
2015,07,04,14,41,27.40
2015,07,04,14,42,27.40
2015,07,04,14,43,27.40
2015,07,04,14,44,27.30
2015,07,04,14,45,27.30
2015,07,04,14,46,27.30
2015,07,04,14,47,27.30
2015,07,04,14,48,27.30
2015,07,04,14,49,27.30
2015,07,04,14,50,27.40
2015,07,04,14,51,27.40
2015,07,04,14,52,27.50
2015,07,04,14,53,27.50
2015,07,04,14,54,27.50
2015,07,04,14,55,27.50
2015,07,04,14,56,27.60
2015,07,04,14,57,27.60
2015,07,04,14,58,27.80
2015,07,04,14,59,27.80
2015,07,04,15,00,27.90
2015,07,04,15,01,28.00
2015,07,04,15,02,28.00
2015,07,04,15,03,28.10
2015,07,04,15,04,28.10
2015,07,04,15,05,28.10
2015,07,04,15,06,28.20
2015,07,04,15,07,28.20
2015,07,04,15,08,28.20
2015,07,04,15,09,28.20
2015,07,04,15,10,28.20
2015,07,04,15,11,28.20
2015,07,04,15,12,28.20
2015,07,04,15,13,28.20
2015,07,04,15,14,28.20
2015,07,04,15,15,28.20
2015,07,04,15,16,28.20
2015,07,04,15,17,28.30
2015,07,04,15,18,28.30
2015,07,04,15,19,28.40
2015,07,04,15,20,28.40
2015,07,04,15,21,28.40
2015,07,04,15,22,28.40
2015,07,04,15,23,28.40
2015,07,04,15,24,28.40
2015,07,04,15,25,28.40
2015,07,04,15,26,28.30
2015,07,04,15,27,28.40
2015,07,04,15,28,28.40
2015,07,04,15,29,28.50
2015,07,04,15,30,28.50
2015,07,04,15,31,28.60
2015,07,04,15,32,28.60
2015,07,04,15,33,28.50
2015,07,04,15,34,28.50
2015,07,04,15,35,28.50
2015,07,04,15,36,28.40
2015,07,04,15,37,28.40
2015,07,04,15,38,28.50
2015,07,04,15,39,28.50
2015,07,04,15,40,28.60
2015,07,04,15,41,28.60
2015,07,04,15,42,28.60
2015,07,04,15,43,28.50
2015,07,04,15,44,28.40
2015,07,04,15,45,28.40
2015,07,04,15,46,28.40
2015,07,04,15,47,28.40
2015,07,04,15,48,28.30
2015,07,04,15,49,28.40
2015,07,04,15,50,28.40
2015,07,04,15,51,28.50
2015,07,04,15,52,28.50
2015,07,04,15,53,28.60
2015,07,04,15,54,28.60
2015,07,04,15,55,28.60
2015,07,04,15,56,28.70
2015,07,04,15,57,28.70
2015,07,04,15,58,28.70
2015,07,04,15,59,28.80
2015,07,04,16,00,28.80
2015,07,04,16,01,28.90
2015,07,04,16,02,29.00
2015,07,04,16,03,29.00
2015,07,04,16,04,28.90
2015,07,04,16,05,28.90
2015,07,04,16,06,28.80
2015,07,04,16,07,28.80
2015,07,04,16,08,28.70
2015,07,04,16,09,28.70
2015,07,04,16,10,28.80
2015,07,04,16,11,28.80
2015,07,04,16,12,28.90
2015,07,04,16,13,28.90
2015,07,04,16,14,29.00
2015,07,04,16,15,29.10
2015,07,04,16,16,29.10
2015,07,04,16,17,29.20
2015,07,04,16,18,29.20
2015,07,04,16,19,29.20
2015,07,04,16,20,29.10
2015,07,04,16,21,29.10
2015,07,04,16,22,29.00
2015,07,04,16,23,29.00
2015,07,04,16,24,29.00
2015,07,04,16,25,28.90
2015,07,04,16,26,28.90
2015,07,04,16,27,28.80
2015,07,04,16,28,28.70
2015,07,04,16,29,28.70
2015,07,04,16,30,28.70
2015,07,04,16,31,28.60
2015,07,04,16,32,28.50
2015,07,04,16,33,28.50
2015,07,04,16,34,28.40
2015,07,04,16,35,28.30
2015,07,04,16,36,28.40
2015,07,04,16,37,28.40
2015,07,04,16,38,28.40
2015,07,04,16,39,28.30
2015,07,04,16,40,28.30
2015,07,04,16,41,28.30
2015,07,04,16,42,28.30
2015,07,04,16,43,28.30
2015,07,04,16,44,28.30
2015,07,04,16,45,28.30
2015,07,04,16,46,28.30
2015,07,04,16,47,28.30
2015,07,04,16,48,28.30
2015,07,04,16,49,28.30
2015,07,04,16,50,28.30
2015,07,04,16,51,28.40
2015,07,04,16,52,28.40
2015,07,04,16,53,28.50
2015,07,04,16,54,28.50
2015,07,04,16,55,28.40
2015,07,04,16,56,28.50
2015,07,04,16,57,28.60
2015,07,04,16,58,28.60
2015,07,04,16,59,28.70
2015,07,04,17,00,28.70
2015,07,04,17,01,28.80
2015,07,04,17,02,28.80
2015,07,04,17,03,28.80
2015,07,04,17,04,28.80
2015,07,04,17,05,28.80
2015,07,04,17,06,28.80
2015,07,04,17,07,28.70
2015,07,04,17,08,28.70
2015,07,04,17,09,28.70
2015,07,04,17,10,28.80
2015,07,04,17,11,28.80
2015,07,04,17,12,28.80
2015,07,04,17,13,28.80
2015,07,04,17,14,28.80
2015,07,04,17,15,28.80
2015,07,04,17,16,28.80
2015,07,04,17,17,28.80
2015,07,04,17,18,28.80
2015,07,04,17,19,28.90